Regional Weather Roundup
Issued by NWS

Home | Current Version | Previous Version | Graphics & Text | Print | Product List | Glossary On
Versions: 1 2 3 4 5 6 7 8 9 10 11 12 13 14 15 16 17 18 19 20 21 22 23 24 25 26 27 28
000
ASUS45 KBOU 301610
RWRCO

WEATHER ROUNDUP FOR COLORADO
NATIONAL WEATHER SERVICE DENVER/BOULDER CO
1000 AM MDT FRI SEP 30 2016

NOTE: "FAIR" INDICATES FEW OR NO CLOUDS BELOW 12000 FEET WITH NO
SIGNIFICANT WEATHER AND/OR OBSTRUCTIONS TO VISIBILITY.

COZ001>005-013-030-031-301700-
...NORTHWEST COLORADO...

CITY           SKY/WX    TMP DP  RH WIND       PRES   REMARKS
CRAIG          PTSUNNY   58  51  78 CALM      30.36S
HAYDEN         CLOUDY    55  46  71 E3        30.38R
MEEKER         CLOUDY    58  52  80 NE3       30.38R
MOUNT WERNER   NOT AVBL
STEAMBOAT SPGS CLOUDY    51  50  96 CALM      30.39R
WALDEN           N/A     50  45  81 S7        30.44S
$$

COZ006>008-011-301700-
...WEST CENTRAL VALLEYS...

CITY           SKY/WX    TMP DP  RH WIND       PRES   REMARKS
GRAND JUNCTION CLOUDY    61  55  81 S5        30.33S
MONTROSE       CLOUDY    59  51  75 CALM      30.39R
EAGLE          CLOUDY    54  52  94 CALM      30.42R
RIFLE          PTSUNNY   60  56  86 VRB3      30.36S
DELTA          NOT AVBL
NUCLA          CLOUDY    55  54  94 CALM      30.42R
$$

COZ017>023-064>068-301700-
...SOUTHWEST COLORADO...

CITY           SKY/WX    TMP DP  RH WIND       PRES   REMARKS
DURANGO        FAIR      56  47  71 CALM      30.40S
CORTEZ         FAIR      59  52  77 CALM      30.37R
PAGOSA SPRINGS FAIR      57  44  61 W6        30.43S
TELLURIDE      CLOUDY    50  46  84 CALM      30.52R
WOLF CREEK PAS FAIR      41  37  87 SW9G18    30.64S
$$

COZ009-010-012-014-032>034-037-058>063-301700-
...CENTRAL COLORADO...

CITY           SKY/WX    TMP DP  RH WIND       PRES   REMARKS
ASPEN          CLOUDY    52  48  86 CALM      30.44R
BUENA VISTA    FAIR      57  37  46 CALM      30.40F
COPPER MTN     LGT RAIN  41  37  87 NW6       30.62S VSB<1/4
BERTHOUD PASS  HAZE      34  23  64 N15G23    30.63S VSB<1/4 WCI  24
COTTONWOOD PAS PTSUNNY   55  37  50 N5        30.50F
GUNNISON       CLOUDY    54  45  71 CALM      30.44S
KREMMLING      CLOUDY    50  41  71 CALM      30.44S
LEADVILLE      CLOUDY    49  40  71 VRB6      30.51R
MONARCH PASS   FOG       37  36  93 W17       30.72R VSB<1/4
SALIDA         FAIR      65  40  38 SW13G23   30.44F
SUNLIGHT       CLOUDY    43  43 100 SW3       30.61R FOG
WILKERSON PASS PTSUNNY   45  32  61 NW6       30.59S
$$

COZ069>075-301700-
...SAN LUIS VALLEY/SANGRE DE CRISTO MOUNTAINS...

CITY           SKY/WX    TMP DP  RH WIND       PRES   REMARKS
ALAMOSA        FAIR      60  42  51 CALM      30.40S
LA VETA PASS   FAIR      54  39  58 MISG      30.51R
SAGUACHE       PTSUNNY   55  41  58 CALM      30.44S
$$

COZ035-036-038>040-301700-
...NORTHERN COLORADO FRONT RANGE...

CITY           SKY/WX    TMP DP  RH WIND       PRES   REMARKS
DENVER INTL AP PTSUNNY   62  42  47 NW7       30.25S
DMNS CITY PARK   N/A     67  42  40 NW3       30.25S
AURORA         PTSUNNY   64  42  45 N7        30.27S
FRONT RANGE AP CLOUDY    63  45  51 NW12G17   30.26S
ERIE MUNI ARPT PTSUNNY   62  43  50 CALM      30.25R
BOULDER MUN AP NOT AVBL
CENTENNIAL     PTSUNNY   65  41  41 NW6       30.28R
BROOMFIELD     PTSUNNY   64  43  45 CALM      30.28R
FORT COLLINS   FAIR      57  46  67 N6        30.24S
LONGMONT       PTSUNNY   61  49  65 CALM      30.25S
$$

COZ041-046-047-076>085-087-088-301700-
...PIKES PEAK/PALMER DIVIDE AND SOUTHERN FOOTHILLS...

CITY           SKY/WX    TMP DP  RH WIND       PRES   REMARKS
COLO. SPRINGS  PTSUNNY   72  39  30 N13       30.27S
A. F. ACADEMY  PTSUNNY   69  38  32 N18G24    30.28R
SCHRIEVER AFB  NOT AVBL
ELLICOTT       NOT AVBL
FALCON         CLOUDY    66  39  36 N15G22    30.31S
FORT CARSON    SUNNY     71  38  30 E3        30.24S
LIMON          FAIR      64  42  44 VRB6      30.23R
MONUMENT HILL  CLOUDY    61  41  48 N12       30.35R
TRINIDAD       FAIR      70  36  28 SE7       30.25R
$$

COZ042>045-048>051-090-091-301700-
...NORTHEAST COLORADO...

CITY           SKY/WX    TMP DP  RH WIND       PRES   REMARKS
GREELEY ARPT   PTSUNNY   61  43  51 CALM      30.24S
AKRON          FAIR      57  42  57 W5        30.21S
BURLINGTON     FAIR      56  43  61 S12       30.22R
WRAY           NOT AVBL
STERLING       FAIR      54  41  62 CALM      30.21S
HOLYOKE        NOT AVBL
FORT MORGAN    PTSUNNY   57  40  53 N3        30.23R
$$

COZ086-089-092>099-301700-
...SOUTHEAST COLORADO...

CITY           SKY/WX    TMP DP  RH WIND       PRES   REMARKS
PUEBLO         FAIR      61  43  51 CALM      30.20S
LA JUNTA       FAIR      58  43  57 VRB3      30.19S
LAMAR          FAIR      63  44  50 E5        30.16R
SPRINGFIELD      N/A     71  45  39 S14G20    30.19R
$$




USA.gov is the U.S. government's official web portal to all federal, state and local government web resources and services.